Agadir Al Massira, Morocco

2:12 PM WET on May 29, 2017 (GMT +0000)
Agadir Al Massira

Weather History for GMAD - January, 2013

Change the Weather History Date:

Monday, January 7, 2013

  Actual Average Record
Temperature  
Mean Temperature 54 °F -  
Max Temperature 72 °F - - ()
Min Temperature 37 °F - - ()
Degree Days  
Heating Degree Days 10    
Growing Degree Days 4 (Base 50)    
Moisture  
Dew Point 39 °F    
Average Humidity 65    
Maximum Humidity 93    
Minimum Humidity 19    
Precipitation  
Precipitation 0.00 in - - ()
Sea Level Pressure  
Sea Level Pressure 30.31 in    
Wind  
Wind Speed 5 mph ()    
Max Wind Speed 13 mph    
Max Gust Speed -    
Visibility 6.1 miles    
Events      
T = Trace of Precipitation, MM = Missing Value Source: Averaged Metar Reports

Daily Weather History Graph

Daily Weather History Graph

Search for Another Location

Airport or City:

Trip Planner

Search our weather history database for the weather conditions in past years. The results will help you decide how hot, cold, wet, or windy it might be!

Date:

Astronomy

Jan. 07, 2013 Rise Set
Actual Time 7:35 AM WET 5:52 PM WET
Civil Twilight 7:09 AM WET 6:19 PM WET
Nautical Twilight 6:39 AM WET 6:48 PM WET
Astronomical Twilight 6:10 AM WET 7:18 PM WET
Moon 2:49 AM WET (1/7) 1:49 PM WET (1/7)
Length of Visible Light 11h 10m
Length of Day
10h 17m
Waning Crescent, 25% of the Moon is Illuminated
Jan 7
Waning Crescent
Jan 11
New
Jan 18
First Quarter
Jan 27
Full
Feb 3
Last Quarter

Hourly Weather History & Observations

Time (WET) Temp. Windchill Dew Point Humidity Pressure Visibility Wind Dir Wind Speed Gust Speed Precip Events Conditions
12:00 AM 44 °F - 39 °F 75% 30.38 in 6 mi East 4.6 mph - -  
12:00 AM 42.8 °F 40.1 °F 39.2 °F 87% 30.36 in - East 4.6 mph - N/A   Clear
1:00 AM 44.6 °F 40.7 °F 37.4 °F 76% 30.36 in - East 6.9 mph - N/A   Clear
3:00 AM 39.2 °F 35.0 °F 33.8 °F 81% 30.33 in - ENE 5.8 mph - N/A   Clear
3:46 AM 39 °F - 34 °F 75% 30.35 in 6 mi ENE 3.5 mph - -  
5:00 AM 41.0 °F 36.4 °F 33.8 °F 76% 30.30 in - East 6.9 mph - N/A   Clear
6:00 AM 44 °F - 35 °F 61% 30.32 in 6 mi East 9.2 mph - -  
6:00 AM 42.8 °F 37.5 °F 35.6 °F 76% 30.30 in - East 9.2 mph - N/A   Clear
7:00 AM 41.0 °F 35.8 °F 33.8 °F 76% 30.30 in - East 8.1 mph - N/A   Clear
8:00 AM 41.0 °F 36.4 °F 33.8 °F 76% 30.30 in - East 6.9 mph - N/A   Clear
9:00 AM 46 °F - 35 °F 55% 30.35 in 6 mi East 8.1 mph - -  
9:00 AM 46.4 °F 42.4 °F 35.6 °F 66% 30.33 in 6.2 mi East 8.1 mph - N/A   Unknown
10:00 AM 53.6 °F - 37.4 °F 54% 30.36 in - ENE 5.8 mph - N/A   Clear
12:00 PM 68.0 °F - 33.8 °F 28% 30.30 in - NE 5.8 mph - N/A   Clear
1:00 PM 71.6 °F - 32.0 °F 23% 30.27 in 6.2 mi Variable 2.3 mph - N/A   Unknown
2:00 PM 71.6 °F - 32.0 °F 23% 30.27 in - Variable 1.2 mph - N/A   Clear
3:00 PM 70 °F - 37 °F 19% 30.26 in 6 mi West 12.7 mph - -  
4:00 PM 68.0 °F - 42.8 °F 40% 30.27 in - West 10.4 mph - N/A   Clear
5:00 PM 66.2 °F - 39.2 °F 37% 30.27 in - West 11.5 mph - N/A   Clear
6:00 PM 61 °F - 50 °F 57% 30.28 in 6 mi WSW 8.1 mph - -  
6:00 PM 60.8 °F - 50.0 °F 68% 30.27 in - WSW 8.1 mph - N/A   Clear
7:00 PM 55.4 °F - 50.0 °F 82% 30.27 in - SSW 4.6 mph - N/A   Clear
8:00 PM 53.6 °F - 50.0 °F 88% 30.30 in - South 5.8 mph - N/A   Clear
9:00 PM 50 °F - 47 °F 86% 30.33 in 6 mi Calm Calm - -  
9:00 PM 50.0 °F - 46.4 °F 87% 30.30 in - Calm Calm - N/A   Clear
10:00 PM 48.2 °F - 44.6 °F 87% 30.33 in - Calm Calm - N/A   Clear
11:00 PM 46.4 °F 42.9 °F 44.6 °F 93% 30.33 in 6.2 mi East 6.9 mph - N/A   Unknown